Time,TemperatureF,DewpointF,PressureIn,WindDirection,WindDirectionDegrees,WindSpeedMPH,WindSpeedGustMPH,Humidity,HourlyPrecipIn,Conditions,Clouds,dailyrainin,SoftwareType,DateUTC
2013-06-10 00:00:00,57.1,53.3,29.84,SW,229,5.0,11.0,87,0.00,,,0.00,Wunderground v.1.15,2013-06-10 07:00:00,
2013-06-10 00:05:00,57.1,53.3,29.86,NW,315,4.0,11.0,87,0.00,,,0.00,Wunderground v.1.15,2013-06-10 07:05:00,
2013-06-10 00:15:00,57.2,53.0,29.86,SW,214,2.0,3.0,86,0.00,,,0.00,Wunderground v.1.15,2013-06-10 07:15:00,
2013-06-10 00:25:00,57.3,53.1,29.85,West,278,4.0,6.0,86,0.00,,,0.00,Wunderground v.1.15,2013-06-10 07:25:00,
2013-06-10 00:35:00,57.3,53.1,29.84,WSW,248,5.0,6.0,86,0.00,,,0.00,Wunderground v.1.15,2013-06-10 07:35:00,
2013-06-10 00:45:00,57.4,53.2,29.85,West,263,4.0,5.0,86,0.00,,,0.00,Wunderground v.1.15,2013-06-10 07:45:00,
2013-06-10 00:55:00,57.4,52.9,29.84,SW,234,5.0,9.0,85,0.00,,,0.00,Wunderground v.1.15,2013-06-10 07:55:00,
2013-06-10 01:05:00,57.4,52.9,29.84,WNW,293,4.0,10.0,85,0.00,,,0.00,Wunderground v.1.15,2013-06-10 08:05:00,
2013-06-10 01:15:00,57.3,52.8,29.83,SW,236,4.0,10.0,85,0.00,,,0.00,Wunderground v.1.15,2013-06-10 08:15:00,
2013-06-10 01:25:00,57.2,52.7,29.83,WSW,245,6.0,10.0,85,0.00,,,0.00,Wunderground v.1.15,2013-06-10 08:25:00,
2013-06-10 01:35:00,57.1,53.0,29.83,SW,230,7.0,10.0,86,0.00,,,0.00,Wunderground v.1.15,2013-06-10 08:35:00,
2013-06-10 01:45:00,57.0,52.9,29.83,WNW,288,7.0,10.0,86,0.00,,,0.00,Wunderground v.1.15,2013-06-10 08:45:00,
2013-06-10 01:55:00,57.0,53.2,29.84,SW,226,5.0,10.0,87,0.00,,,0.00,Wunderground v.1.15,2013-06-10 08:55:00,
2013-06-10 02:05:00,56.9,53.1,29.84,West,267,5.0,10.0,87,0.00,,,0.00,Wunderground v.1.15,2013-06-10 09:05:00,
2013-06-10 02:15:00,56.9,52.8,29.83,SW,236,4.0,5.0,86,0.00,,,0.00,Wunderground v.1.15,2013-06-10 09:15:00,
2013-06-10 02:25:00,56.8,52.7,29.83,WSW,237,4.0,10.0,86,0.00,,,0.00,Wunderground v.1.15,2013-06-10 09:25:00,
2013-06-10 02:35:00,56.6,52.5,29.83,SW,224,5.0,10.0,86,0.00,,,0.00,Wunderground v.1.15,2013-06-10 09:35:00,
2013-06-10 02:45:00,56.5,52.4,29.82,SW,219,5.0,10.0,86,0.00,,,0.00,Wunderground v.1.15,2013-06-10 09:45:00,
2013-06-10 02:55:00,56.4,52.3,29.82,WSW,237,4.0,6.0,86,0.00,,,0.00,Wunderground v.1.15,2013-06-10 09:55:00,
2013-06-10 03:00:00,56.4,52.3,29.82,SW,221,4.0,10.0,86,0.00,,,0.00,Wunderground v.1.15,2013-06-10 10:00:00,
2013-06-10 03:10:00,56.3,52.2,29.81,SW,223,4.0,4.0,86,0.00,,,0.00,Wunderground v.1.15,2013-06-10 10:10:00,
2013-06-10 03:20:00,56.3,51.8,29.80,South,188,4.0,10.0,85,0.00,,,0.00,Wunderground v.1.15,2013-06-10 10:20:00,
2013-06-10 03:30:00,56.5,52.0,29.81,SSE,148,5.0,5.0,85,0.00,,,0.00,Wunderground v.1.15,2013-06-10 10:30:00,
2013-06-10 03:40:00,56.6,51.8,29.82,South,178,1.0,10.0,84,0.00,,,0.00,Wunderground v.1.15,2013-06-10 10:40:00,
2013-06-10 03:50:00,56.7,51.6,29.82,West,268,4.0,10.0,83,0.00,,,0.00,Wunderground v.1.15,2013-06-10 10:50:00,
2013-06-10 04:00:00,56.7,51.6,29.83,SW,228,3.0,10.0,83,0.00,,,0.00,Wunderground v.1.15,2013-06-10 11:00:00,
2013-06-10 04:10:00,56.7,51.6,29.83,West,263,4.0,4.0,83,0.00,,,0.00,Wunderground v.1.15,2013-06-10 11:10:00,
2013-06-10 04:20:00,56.7,51.3,29.82,SSW,205,5.0,10.0,82,0.00,,,0.00,Wunderground v.1.15,2013-06-10 11:20:00,
2013-06-10 04:30:00,56.6,51.5,29.83,SSE,151,5.0,5.0,83,0.00,,,0.00,Wunderground v.1.15,2013-06-10 11:30:00,
2013-06-10 04:40:00,56.6,51.2,29.84,SSE,168,2.0,10.0,82,0.00,,,0.00,Wunderground v.1.15,2013-06-10 11:40:00,
2013-06-10 04:50:00,56.7,51.3,29.83,South,187,2.0,10.0,82,0.00,,,0.00,Wunderground v.1.15,2013-06-10 11:50:00,
2013-06-10 04:55:00,56.7,51.3,29.83,West,261,3.0,10.0,82,0.00,,,0.00,Wunderground v.1.15,2013-06-10 11:55:00,
2013-06-10 05:05:00,56.6,51.2,29.82,SW,226,6.0,10.0,82,0.00,,,0.00,Wunderground v.1.15,2013-06-10 12:05:00,
2013-06-10 05:15:00,56.5,51.1,29.83,West,261,3.0,10.0,82,0.00,,,0.00,Wunderground v.1.15,2013-06-10 12:15:00,
2013-06-10 05:25:00,56.4,51.0,29.83,South,179,1.0,5.0,82,0.00,,,0.00,Wunderground v.1.15,2013-06-10 12:25:00,
2013-06-10 05:35:00,56.4,51.3,29.82,South,184,3.0,5.0,83,0.00,,,0.00,Wunderground v.1.15,2013-06-10 12:35:00,
2013-06-10 05:45:00,56.2,51.7,29.84,SSE,161,4.0,10.0,85,0.00,,,0.00,Wunderground v.1.15,2013-06-10 12:45:00,
2013-06-10 05:55:00,55.9,51.8,29.83,WNW,285,1.0,10.0,86,0.00,,,0.00,Wunderground v.1.15,2013-06-10 12:55:00,
2013-06-10 06:05:00,55.6,51.8,29.83,West,266,1.0,10.0,87,0.00,,,0.00,Wunderground v.1.15,2013-06-10 13:05:00,
2013-06-10 06:15:00,55.5,52.3,29.83,SW,227,1.0,10.0,89,0.00,,,0.00,Wunderground v.1.15,2013-06-10 13:15:00,
2013-06-10 06:25:00,55.4,51.9,29.84,SW,224,0.0,10.0,88,0.00,,,0.00,Wunderground v.1.15,2013-06-10 13:25:00,
2013-06-10 06:35:00,55.5,52.3,29.83,SW,227,0.0,10.0,89,0.00,,,0.00,Wunderground v.1.15,2013-06-10 13:35:00,
2013-06-10 06:45:00,55.8,52.3,29.84,West,278,2.0,10.0,88,0.00,,,0.00,Wunderground v.1.15,2013-06-10 13:45:00,
2013-06-10 06:55:00,56.0,52.2,29.84,SSW,203,1.0,10.0,87,0.00,,,0.00,Wunderground v.1.15,2013-06-10 13:55:00,
2013-06-10 07:00:00,56.1,52.0,29.85,SSE,160,2.0,10.0,86,0.00,,,0.00,Wunderground v.1.15,2013-06-10 14:00:00,
2013-06-10 07:10:00,56.2,51.7,29.85,WSW,238,2.0,10.0,85,0.00,,,0.00,Wunderground v.1.15,2013-06-10 14:10:00,
2013-06-10 07:20:00,56.2,51.4,29.85,SW,230,3.0,3.0,84,0.00,,,0.00,Wunderground v.1.15,2013-06-10 14:20:00,
2013-06-10 07:30:00,56.2,51.1,29.85,SW,222,4.0,10.0,83,0.00,,,0.00,Wunderground v.1.15,2013-06-10 14:30:00,
2013-06-10 07:40:00,56.3,50.9,29.85,WSW,240,6.0,10.0,82,0.00,,,0.00,Wunderground v.1.15,2013-06-10 14:40:00,
2013-06-10 07:50:00,56.3,50.5,29.85,SSW,212,5.0,5.0,81,0.00,,,0.00,Wunderground v.1.15,2013-06-10 14:50:00,
2013-06-10 08:00:00,56.6,50.8,29.85,WSW,238,4.0,10.0,81,0.00,,,0.00,Wunderground v.1.15,2013-06-10 15:00:00,
2013-06-10 08:05:00,56.8,51.0,29.86,WSW,238,5.0,10.0,81,0.00,,,0.00,Wunderground v.1.15,2013-06-10 15:05:00,
2013-06-10 08:10:00,57.2,51.1,29.86,West,269,6.0,7.0,80,0.00,,,0.00,Wunderground v.1.15,2013-06-10 15:10:00,
2013-06-10 08:15:00,57.4,50.9,29.86,WSW,252,6.0,7.0,79,0.00,,,0.00,Wunderground v.1.15,2013-06-10 15:15:00,
2013-06-10 08:20:00,57.8,51.3,29.86,West,273,6.0,6.0,79,0.00,,,0.00,Wunderground v.1.15,2013-06-10 15:20:00,
2013-06-10 08:30:00,58.0,50.8,29.86,SW,218,6.0,9.0,77,0.00,,,0.00,Wunderground v.1.15,2013-06-10 15:30:00,
2013-06-10 08:40:00,57.9,51.1,29.87,South,188,7.0,10.0,78,0.00,,,0.00,Wunderground v.1.15,2013-06-10 15:40:00,
2013-06-10 08:50:00,57.9,51.1,29.88,SW,229,6.0,7.0,78,0.00,,,0.00,Wunderground v.1.15,2013-06-10 15:50:00,
2013-06-10 08:55:00,57.9,51.4,29.88,West,273,6.0,7.0,79,0.00,,,0.00,Wunderground v.1.15,2013-06-10 15:55:00,
2013-06-10 09:00:00,57.9,51.4,29.88,SW,236,5.0,8.0,79,0.00,,,0.00,Wunderground v.1.15,2013-06-10 16:00:00,
2013-06-10 09:10:00,58.0,51.5,29.88,WSW,239,5.0,8.0,79,0.00,,,0.00,Wunderground v.1.15,2013-06-10 16:10:00,
2013-06-10 09:20:00,58.3,51.1,29.89,SW,214,6.0,8.0,77,0.00,,,0.00,Wunderground v.1.15,2013-06-10 16:20:00,
2013-06-10 09:25:00,58.3,51.5,29.89,WSW,251,7.0,8.0,78,0.00,,,0.00,Wunderground v.1.15,2013-06-10 16:25:00,
2013-06-10 09:35:00,58.6,51.4,29.89,SW,223,5.0,8.0,77,0.00,,,0.00,Wunderground v.1.15,2013-06-10 16:35:00,
2013-06-10 09:40:00,58.9,52.1,29.89,SW,232,6.0,6.0,78,0.00,,,0.00,Wunderground v.1.15,2013-06-10 16:40:00,
2013-06-10 09:45:00,59.5,52.3,29.89,WSW,251,5.0,10.0,77,0.00,,,0.00,Wunderground v.1.15,2013-06-10 16:45:00,
2013-06-10 09:55:00,59.9,52.0,29.89,WSW,244,6.0,8.0,75,0.00,,,0.00,Wunderground v.1.15,2013-06-10 16:55:00,
2013-06-10 10:05:00,59.8,51.9,29.89,SSE,167,6.0,8.0,75,0.00,,,0.00,Wunderground v.1.15,2013-06-10 17:05:00,
2013-06-10 10:15:00,59.8,52.2,29.89,WSW,247,5.0,8.0,76,0.00,,,0.00,Wunderground v.1.15,2013-06-10 17:15:00,
2013-06-10 10:20:00,59.8,52.2,29.89,SW,236,6.0,9.0,76,0.00,,,0.00,Wunderground v.1.15,2013-06-10 17:20:00,
2013-06-10 10:30:00,60.2,52.6,29.89,SW,236,6.0,8.0,76,0.00,,,0.00,Wunderground v.1.15,2013-06-10 17:30:00,
2013-06-10 10:40:00,61.6,53.2,29.89,West,262,6.0,11.0,74,0.00,,,0.00,Wunderground v.1.15,2013-06-10 17:40:00,
2013-06-10 10:50:00,62.5,53.3,29.90,WSW,245,7.0,7.0,72,0.00,,,0.00,Wunderground v.1.15,2013-06-10 17:50:00,
2013-06-10 11:00:00,62.9,53.0,29.91,SSW,201,7.0,7.0,70,0.00,,,0.00,Wunderground v.1.15,2013-06-10 18:00:00,
2013-06-10 11:05:00,62.7,52.8,29.90,SW,233,6.0,10.0,70,0.00,,,0.00,Wunderground v.1.15,2013-06-10 18:05:00,
2013-06-10 11:10:00,62.6,52.7,29.90,SSW,200,7.0,10.0,70,0.00,,,0.00,Wunderground v.1.15,2013-06-10 18:10:00,
2013-06-10 11:15:00,62.8,52.9,29.90,SW,228,7.0,10.0,70,0.00,,,0.00,Wunderground v.1.15,2013-06-10 18:15:00,
2013-06-10 11:20:00,63.1,52.8,29.90,WSW,258,7.0,7.0,69,0.00,,,0.00,Wunderground v.1.15,2013-06-10 18:20:00,
2013-06-10 11:25:00,63.1,52.8,29.90,SSW,210,7.0,8.0,69,0.00,,,0.00,Wunderground v.1.15,2013-06-10 18:25:00,
2013-06-10 11:30:00,63.5,53.1,29.91,SSW,201,6.0,10.0,69,0.00,,,0.00,Wunderground v.1.15,2013-06-10 18:30:00,
2013-06-10 11:40:00,63.3,52.6,29.90,SW,219,6.0,8.0,68,0.00,,,0.00,Wunderground v.1.15,2013-06-10 18:40:00,
2013-06-10 11:45:00,63.2,52.9,29.91,WSW,243,6.0,8.0,69,0.00,,,0.00,Wunderground v.1.15,2013-06-10 18:45:00,
2013-06-10 11:55:00,63.3,53.0,29.90,WSW,252,5.0,8.0,69,0.00,,,0.00,Wunderground v.1.15,2013-06-10 18:55:00,
2013-06-10 12:05:00,63.8,53.0,29.91,WSW,246,5.0,8.0,68,0.00,,,0.00,Wunderground v.1.15,2013-06-10 19:05:00,
2013-06-10 12:15:00,64.1,52.9,29.91,WSW,255,6.0,6.0,67,0.00,,,0.00,Wunderground v.1.15,2013-06-10 19:15:00,
2013-06-10 12:25:00,64.8,53.2,29.91,SW,233,8.0,13.0,66,0.00,,,0.00,Wunderground v.1.15,2013-06-10 19:25:00,
2013-06-10 12:35:00,65.9,53.8,29.90,SW,218,6.0,7.0,65,0.00,,,0.00,Wunderground v.1.15,2013-06-10 19:35:00,
2013-06-10 12:45:00,65.8,54.1,29.90,WSW,237,6.0,12.0,66,0.00,,,0.00,Wunderground v.1.15,2013-06-10 19:45:00,
2013-06-10 12:50:00,65.6,53.9,29.90,West,273,6.0,7.0,66,0.00,,,0.00,Wunderground v.1.15,2013-06-10 19:50:00,
2013-06-10 13:00:00,65.3,53.2,29.90,SW,232,8.0,8.0,65,0.00,,,0.00,Wunderground v.1.15,2013-06-10 20:00:00,
2013-06-10 13:10:00,65.2,54.0,29.90,SW,234,7.0,10.0,67,0.00,,,0.00,Wunderground v.1.15,2013-06-10 20:10:00,
2013-06-10 13:15:00,65.4,53.7,29.90,SSW,195,7.0,10.0,66,0.00,,,0.00,Wunderground v.1.15,2013-06-10 20:15:00,
2013-06-10 13:20:00,65.6,53.9,29.90,SSW,198,7.0,7.0,66,0.00,,,0.00,Wunderground v.1.15,2013-06-10 20:20:00,
2013-06-10 13:25:00,66.1,54.8,29.90,West,264,6.0,10.0,67,0.00,,,0.00,Wunderground v.1.15,2013-06-10 20:25:00,
2013-06-10 13:30:00,67.1,54.1,29.89,SW,232,6.0,6.0,63,0.00,,,0.00,Wunderground v.1.15,2013-06-10 20:30:00,
2013-06-10 13:40:00,68.1,54.6,29.89,SSW,210,6.0,10.0,62,0.00,,,0.00,Wunderground v.1.15,2013-06-10 20:40:00,
2013-06-10 13:50:00,69.1,54.6,29.90,West,271,6.0,10.0,60,0.00,,,0.00,Wunderground v.1.15,2013-06-10 20:50:00,
2013-06-10 14:00:00,69.4,54.9,29.90,SSW,194,6.0,12.0,60,0.00,,,0.00,Wunderground v.1.15,2013-06-10 21:00:00,
2013-06-10 14:05:00,68.9,55.3,29.90,WNW,285,8.0,12.0,62,0.00,,,0.00,Wunderground v.1.15,2013-06-10 21:05:00,
2013-06-10 14:10:00,69.1,55.1,29.90,NW,309,8.0,8.0,61,0.00,,,0.00,Wunderground v.1.15,2013-06-10 21:10:00,
2013-06-10 14:15:00,69.4,55.4,29.90,SSW,205,7.0,10.0,61,0.00,,,0.00,Wunderground v.1.15,2013-06-10 21:15:00,
2013-06-10 14:20:00,69.3,55.3,29.90,SW,221,7.0,7.0,61,0.00,,,0.00,Wunderground v.1.15,2013-06-10 21:20:00,
2013-06-10 14:30:00,70.0,55.5,29.90,SW,217,7.0,7.0,60,0.00,,,0.00,Wunderground v.1.15,2013-06-10 21:30:00,
2013-06-10 14:35:00,69.8,55.3,29.90,West,265,7.0,8.0,60,0.00,,,0.00,Wunderground v.1.15,2013-06-10 21:35:00,
2013-06-10 14:45:00,70.1,55.6,29.90,WSW,247,6.0,9.0,60,0.00,,,0.00,Wunderground v.1.15,2013-06-10 21:45:00,
2013-06-10 14:50:00,70.1,55.6,29.90,WSW,250,7.0,10.0,60,0.00,,,0.00,Wunderground v.1.15,2013-06-10 21:50:00,
2013-06-10 15:00:00,69.2,55.2,29.90,SW,230,8.0,10.0,61,0.00,,,0.00,Wunderground v.1.15,2013-06-10 22:00:00,
2013-06-10 15:05:00,69.3,55.3,29.91,SW,231,8.0,10.0,61,0.00,,,0.00,Wunderground v.1.15,2013-06-10 22:05:00,
2013-06-10 15:10:00,69.0,55.0,29.90,SSW,205,7.0,12.0,61,0.00,,,0.00,Wunderground v.1.15,2013-06-10 22:10:00,
2013-06-10 15:15:00,69.1,55.1,29.90,NW,307,7.0,12.0,61,0.00,,,0.00,Wunderground v.1.15,2013-06-10 22:15:00,
2013-06-10 15:20:00,69.9,55.4,29.90,West,264,7.0,7.0,60,0.00,,,0.00,Wunderground v.1.15,2013-06-10 22:20:00,
2013-06-10 15:25:00,70.4,55.8,29.90,South,181,7.0,10.0,60,0.00,,,0.00,Wunderground v.1.15,2013-06-10 22:25:00,
2013-06-10 15:30:00,70.1,55.1,29.91,WSW,237,8.0,12.0,59,0.00,,,0.00,Wunderground v.1.15,2013-06-10 22:30:00,
2013-06-10 15:35:00,70.1,55.6,29.90,SSW,209,8.0,12.0,60,0.00,,,0.00,Wunderground v.1.15,2013-06-10 22:35:00,
2013-06-10 15:45:00,70.6,56.0,29.91,SW,232,8.0,10.0,60,0.00,,,0.00,Wunderground v.1.15,2013-06-10 22:45:00,
2013-06-10 15:55:00,69.7,55.2,29.91,SW,227,7.0,10.0,60,0.00,,,0.00,Wunderground v.1.15,2013-06-10 22:55:00,
2013-06-10 16:05:00,69.7,55.6,29.91,WSW,245,7.0,15.0,61,0.00,,,0.00,Wunderground v.1.15,2013-06-10 23:05:00,
2013-06-10 16:10:00,69.1,55.1,29.91,WSW,253,7.0,7.0,61,0.00,,,0.00,Wunderground v.1.15,2013-06-10 23:10:00,
2013-06-10 16:20:00,69.0,55.0,29.91,SW,220,8.0,8.0,61,0.00,,,0.00,Wunderground v.1.15,2013-06-10 23:20:00,
2013-06-10 16:30:00,69.1,55.1,29.91,WNW,282,6.0,6.0,61,0.00,,,0.00,Wunderground v.1.15,2013-06-10 23:30:00,
2013-06-10 16:35:00,69.4,55.4,29.90,West,262,6.0,6.0,61,0.00,,,0.00,Wunderground v.1.15,2013-06-10 23:35:00,
2013-06-10 16:45:00,69.3,54.8,29.90,WSW,237,6.0,6.0,60,0.00,,,0.00,Wunderground v.1.15,2013-06-10 23:45:00,
2013-06-10 16:55:00,68.4,54.9,29.90,WSW,258,7.0,8.0,62,0.00,,,0.00,Wunderground v.1.15,2013-06-10 23:55:00,
2013-06-10 17:00:00,68.3,54.8,29.89,WSW,256,6.0,12.0,62,0.00,,,0.00,Wunderground v.1.15,2013-06-11 00:00:00,
2013-06-10 17:10:00,68.6,55.1,29.89,WSW,253,5.0,12.0,62,0.00,,,0.00,Wunderground v.1.15,2013-06-11 00:10:00,
2013-06-10 17:20:00,68.3,54.8,29.89,SW,233,6.0,6.0,62,0.00,,,0.00,Wunderground v.1.15,2013-06-11 00:20:00,
2013-06-10 17:25:00,68.5,55.0,29.89,SW,221,6.0,12.0,62,0.00,,,0.00,Wunderground v.1.15,2013-06-11 00:25:00,
2013-06-10 17:30:00,68.5,55.0,29.89,West,278,6.0,6.0,62,0.00,,,0.00,Wunderground v.1.15,2013-06-11 00:30:00,
2013-06-10 17:35:00,68.3,54.3,29.89,West,259,6.0,7.0,61,0.00,,,0.00,Wunderground v.1.15,2013-06-11 00:35:00,
2013-06-10 17:40:00,68.1,55.0,29.89,WSW,257,5.0,12.0,63,0.00,,,0.00,Wunderground v.1.15,2013-06-11 00:40:00,
2013-06-10 17:45:00,68.3,55.2,29.89,South,169,5.0,12.0,63,0.00,,,0.00,Wunderground v.1.15,2013-06-11 00:45:00,
2013-06-10 17:50:00,68.7,55.2,29.89,NW,314,5.0,12.0,62,0.00,,,0.00,Wunderground v.1.15,2013-06-11 00:50:00,
2013-06-10 17:55:00,68.8,54.8,29.89,SW,214,4.0,12.0,61,0.00,,,0.00,Wunderground v.1.15,2013-06-11 00:55:00,
2013-06-10 18:00:00,68.9,54.9,29.89,WNW,282,4.0,12.0,61,0.00,,,0.00,Wunderground v.1.15,2013-06-11 01:00:00,
2013-06-10 18:05:00,69.4,54.9,29.89,West,262,4.0,12.0,60,0.00,,,0.00,Wunderground v.1.15,2013-06-11 01:05:00,
2013-06-10 18:10:00,69.2,54.7,29.89,WSW,255,4.0,12.0,60,0.00,,,0.00,Wunderground v.1.15,2013-06-11 01:10:00,
2013-06-10 18:20:00,68.0,54.5,29.89,NW,326,6.0,6.0,62,0.00,,,0.00,Wunderground v.1.15,2013-06-11 01:20:00,
2013-06-10 18:25:00,68.0,54.5,29.89,SW,233,5.0,12.0,62,0.00,,,0.00,Wunderground v.1.15,2013-06-11 01:25:00,
2013-06-10 18:30:00,67.5,54.5,29.89,WNW,299,4.0,12.0,63,0.00,,,0.00,Wunderground v.1.15,2013-06-11 01:30:00,
2013-06-10 18:40:00,67.2,54.2,29.89,SW,225,4.0,4.0,63,0.00,,,0.00,Wunderground v.1.15,2013-06-11 01:40:00,
2013-06-10 18:45:00,66.3,54.2,29.89,SW,221,5.0,9.0,65,0.00,,,0.00,Wunderground v.1.15,2013-06-11 01:45:00,
2013-06-10 18:55:00,65.1,54.3,29.89,WSW,246,6.0,12.0,68,0.00,,,0.00,Wunderground v.1.15,2013-06-11 01:55:00,
2013-06-10 19:05:00,64.3,53.9,29.89,WSW,239,6.0,12.0,69,0.00,,,0.00,Wunderground v.1.15,2013-06-11 02:05:00,
2013-06-10 19:15:00,63.9,53.9,29.89,West,260,5.0,6.0,70,0.00,,,0.00,Wunderground v.1.15,2013-06-11 02:15:00,
2013-06-10 19:20:00,63.8,54.2,29.89,West,269,4.0,5.0,71,0.00,,,0.00,Wunderground v.1.15,2013-06-11 02:20:00,
2013-06-10 19:25:00,63.8,54.2,29.89,NW,307,4.0,5.0,71,0.00,,,0.00,Wunderground v.1.15,2013-06-11 02:25:00,
2013-06-10 19:35:00,63.1,53.9,29.89,SSW,208,4.0,7.0,72,0.00,,,0.00,Wunderground v.1.15,2013-06-11 02:35:00,
2013-06-10 19:40:00,62.9,53.7,29.89,NW,314,5.0,5.0,72,0.00,,,0.00,Wunderground v.1.15,2013-06-11 02:40:00,
2013-06-10 19:45:00,62.7,53.5,29.89,WNW,293,4.0,5.0,72,0.00,,,0.00,Wunderground v.1.15,2013-06-11 02:45:00,
2013-06-10 19:55:00,62.4,53.6,29.89,NW,324,3.0,6.0,73,0.00,,,0.00,Wunderground v.1.15,2013-06-11 02:55:00,
2013-06-10 20:05:00,61.7,53.7,29.89,WNW,284,3.0,12.0,75,0.00,,,0.00,Wunderground v.1.15,2013-06-11 03:05:00,
2013-06-10 20:15:00,60.9,53.6,29.89,NW,314,4.0,5.0,77,0.00,,,0.00,Wunderground v.1.15,2013-06-11 03:15:00,
2013-06-10 20:25:00,60.3,53.4,29.88,NW,320,3.0,12.0,78,0.00,,,0.00,Wunderground v.1.15,2013-06-11 03:25:00,
2013-06-10 20:35:00,59.8,53.3,29.88,NW,314,2.0,12.0,79,0.00,,,0.00,Wunderground v.1.15,2013-06-11 03:35:00,
2013-06-10 20:40:00,59.5,53.3,29.89,NW,305,2.0,12.0,80,0.00,,,0.00,Wunderground v.1.15,2013-06-11 03:40:00,
2013-06-10 20:45:00,59.3,53.1,29.89,NW,307,2.0,12.0,80,0.00,,,0.00,Wunderground v.1.15,2013-06-11 03:45:00,
2013-06-10 20:55:00,58.9,53.1,29.89,WNW,296,1.0,12.0,81,0.00,,,0.00,Wunderground v.1.15,2013-06-11 03:55:00,
2013-06-10 21:00:00,58.7,52.9,29.89,NW,307,1.0,12.0,81,0.00,,,0.00,Wunderground v.1.15,2013-06-11 04:00:00,
2013-06-10 21:05:00,58.5,52.7,29.89,NW,320,2.0,12.0,81,0.00,,,0.00,Wunderground v.1.15,2013-06-11 04:05:00,
2013-06-10 21:10:00,58.4,52.6,29.90,NW,311,2.0,12.0,81,0.00,,,0.00,Wunderground v.1.15,2013-06-11 04:10:00,
2013-06-10 21:15:00,58.2,52.7,29.90,NW,318,2.0,12.0,82,0.00,,,0.00,Wunderground v.1.15,2013-06-11 04:15:00,
2013-06-10 21:20:00,58.0,52.5,29.90,WNW,301,2.0,2.0,82,0.00,,,0.00,Wunderground v.1.15,2013-06-11 04:20:00,
2013-06-10 21:25:00,57.8,52.3,29.90,NW,307,1.0,12.0,82,0.00,,,0.00,Wunderground v.1.15,2013-06-11 04:25:00,
2013-06-10 21:35:00,57.5,52.4,29.90,WNW,302,0.0,2.0,83,0.00,,,0.00,Wunderground v.1.15,2013-06-11 04:35:00,
2013-06-10 21:40:00,57.4,52.3,29.91,NW,317,1.0,1.0,83,0.00,,,0.00,Wunderground v.1.15,2013-06-11 04:40:00,
2013-06-10 21:50:00,57.1,52.0,29.91,NE,49,1.0,1.0,83,0.00,,,0.00,Wunderground v.1.15,2013-06-11 04:50:00,
2013-06-10 22:00:00,56.9,52.1,29.91,NW,323,1.0,1.0,84,0.00,,,0.00,Wunderground v.1.15,2013-06-11 05:00:00,
2013-06-10 22:05:00,56.8,52.0,29.91,North,1,1.0,1.0,84,0.00,,,0.00,Wunderground v.1.15,2013-06-11 05:05:00,
2013-06-10 22:15:00,56.7,51.9,29.91,North,356,1.0,3.0,84,0.00,,,0.00,Wunderground v.1.15,2013-06-11 05:15:00,
2013-06-10 22:25:00,56.5,52.0,29.91,North,354,1.0,1.0,85,0.00,,,0.00,Wunderground v.1.15,2013-06-11 05:25:00,
2013-06-10 22:35:00,56.3,51.8,29.91,NNW,333,1.0,1.0,85,0.00,,,0.00,Wunderground v.1.15,2013-06-11 05:35:00,
2013-06-10 22:40:00,56.3,51.8,29.91,NW,308,1.0,3.0,85,0.00,,,0.00,Wunderground v.1.15,2013-06-11 05:40:00,
2013-06-10 22:45:00,56.2,51.7,29.91,NW,321,0.0,3.0,85,0.00,,,0.00,Wunderground v.1.15,2013-06-11 05:45:00,
2013-06-10 22:50:00,56.0,51.6,29.91,North,350,0.0,0.0,85,0.00,,,0.00,Wunderground v.1.15,2013-06-11 05:50:00,
2013-06-10 22:55:00,56.0,51.9,29.91,North,350,1.0,1.0,86,0.00,,,0.00,Wunderground v.1.15,2013-06-11 05:55:00,
2013-06-10 23:05:00,55.8,51.7,29.91,NW,305,1.0,5.0,86,0.00,,,0.00,Wunderground v.1.15,2013-06-11 06:05:00,
2013-06-10 23:15:00,55.7,51.6,29.92,East,87,0.0,5.0,86,0.00,,,0.00,Wunderground v.1.15,2013-06-11 06:15:00,
2013-06-10 23:25:00,55.4,51.6,29.92,West,269,0.0,5.0,87,0.00,,,0.00,Wunderground v.1.15,2013-06-11 06:25:00,
2013-06-10 23:30:00,55.3,51.5,29.92,North,6,0.0,5.0,87,0.00,,,0.00,Wunderground v.1.15,2013-06-11 06:30:00,
2013-06-10 23:40:00,55.1,51.3,29.91,North,358,0.0,5.0,87,0.00,,,0.00,Wunderground v.1.15,2013-06-11 06:40:00,
2013-06-10 23:50:00,54.9,51.4,29.91,NE,39,1.0,1.0,88,0.00,,,0.00,Wunderground v.1.15,2013-06-11 06:50:00,